Regional Weather Roundup
Issued by NWS

Home | Current Version | Previous Version | Text Only | Print | Product List | Glossary Off
Versions: 1 2 3 4 5 6 7 8 9 10 11 12 13 14 15 16 17 18 19 20 21 22 23 24 25 26 27 28 29 30 31 32 33 34 35 36 37 38 39 40 41 42 43 44 45 46 47 48 49 50

682
ASUS43 KFSD 190302
RWRSD

WEATHER ROUNDUP FOR SOUTH DAKOTA
NATIONAL WEATHER SERVICE SIOUX FALLS SD
1000 PM CDT WED OCT 18 2017

NOTE: "FAIR" INDICATES FEW OR NO CLOUDS BELOW 12,000 FEET WITH NO
SIGNIFICANT WEATHER AND/OR OBSTRUCTIONS TO VISIBILITY.


SDZ001>005-009-010-012>017-190400-
NORTHWEST AND NORTH CENTRAL SOUTH DAKOTA

CITY           SKY/WX    TMP DP  RH WIND       PRES   REMARKS
BUFFALO          N/A     49  25  39 SE5       29.87F
FAITH            N/A     48  25  40 SE14      29.96F
MOBRIDGE       CLOUDY    45  37  73 SE3       29.97F
$$

SDZ012>016-024>037-041>051-057-063-072>074-190400-
SOUTHWEST AND SOUTH CENTRAL SOUTH DAKOTA

CITY           SKY/WX    TMP DP  RH WIND       PRES   REMARKS
RAPID CTY ARPT CLOUDY    49  28  44 SE9       29.98F
PIERRE         CLOUDY    42  32  67 E5        30.01S
CUSTER         CLOUDY    54  23  30 S6        30.07F
ELLSWORTH AFB  CLOUDY    55  28  35 S13       29.96F
PHILIP         CLOUDY    50  33  52 SE6       29.99F
PINE RIDGE     CLOUDY    62  29  28 S15G28    30.02S
SPEARFISH      FAIR      64  23  20 S12G20    29.93F
WINNER         FAIR      47  33  58 S9        30.05S
$$

SDZ004>011-016>023-039-040-190400-
NORTHEAST SOUTH DAKOTA

CITY           SKY/WX    TMP DP  RH WIND       PRES   REMARKS
ABERDEEN       CLOUDY    39  30  70 S6        30.02S
WATERTOWN      CLOUDY    43  31  62 SW6       30.03S
BROOKINGS      CLOUDY    44  33  65 CALM      30.06R
SISSETON         N/A     50  30  46 W12       29.99S
$$

SDZ017-020-022-023-036>040-048>070-190400-
SOUTHEAST SOUTH DAKOTA

CITY           SKY/WX    TMP DP  RH WIND       PRES   REMARKS
SIOUX FALLS    PTCLDY    47  36  65 CALM      30.05S
HURON          CLOUDY    47  32  56 S3        30.04S
CHAMBERLAIN    CLOUDY    44  34  70 SE3       30.04F
MITCHELL       CLEAR     49  32  52 CALM      30.06R
YANKTON        CLEAR     51  34  52 W5        30.05F
$$

ABBREVIATIONS USED IN REMARKS
   TC - TEMPERATURE IN CELSIUS
  WCI - WIND CHILL INDEX
   HX - HEAT INDEX
  VSB - VISIBILITY





USA.gov is the U.S. government's official web portal to all federal, state and local government web resources and services.